Overview Statistics Trail Chart Weather Telemetry Raw packets
 

This is the latest recevied weather packets stored in our database for station/object W0WFX-2. If no packets are shown the sender has not sent any weather packets the latest 10 day(s).

<< 105 106 107 108 109 110 111 >>
Time Temp. Humidity Pressure Rain* Wind** Luminosity Snow
1787846377 29.44° C 55% 1019.8 hPa 0 mm - 602 W/m² -
1787846073 28.89° C 54% 1019.6 hPa 0 mm - 582 W/m² -
1787845769 28.89° C 55% 1019.8 hPa 0 mm - 569 W/m² -
1787845465 28.33° C 55% 1019.7 hPa 0 mm - 566 W/m² -
1787845161 28.33° C 56% 1019.5 hPa 0 mm - 558 W/m² -
1787844856 27.78° C 57% 1019.4 hPa 0 mm - 522 W/m² -
1787844554 27.78° C 59% 1019.7 hPa 0 mm - 521 W/m² -
1787844250 27.78° C 63% 1019.5 hPa 0 mm - 500 W/m² -
1787843949 27.22° C 62% 1019.6 hPa 0 mm - 486 W/m² -
1787843644 27.22° C 61% 1019.5 hPa 0 mm - 473 W/m² -
1787843341 26.67° C 62% 1019.6 hPa 0 mm - 459 W/m² -
1787843036 26.11° C 64% 1019.7 hPa 0 mm - 440 W/m² -
1787842735 25.56° C 68% 1019.7 hPa 0 mm - 410 W/m² -
1787842430 25° C 70% 1019.7 hPa 0 mm - 413 W/m² -
1787842125 24.44° C 71% 1019.6 hPa 0 mm - 395 W/m² -
1787841820 23.89° C 73% 1019.5 hPa 0 mm - 255 W/m² -
1787841516 23.89° C 74% 1019.3 hPa 0 mm - 79 W/m² -
1787841215 23.33° C 73% 1019.3 hPa 0 mm - 79 W/m² -
1787840910 23.33° C 73% 1019.4 hPa 0 mm - 85 W/m² -
1787840605 22.78° C 74% 1018.9 hPa 0 mm - 137 W/m² -
1787840300 22.78° C 75% 1019.3 hPa 0 mm - 87 W/m² -
1787840001 22.78° C 76% 1019.4 hPa 0 mm - 64 W/m² -
1787839700 22.22° C 77% 1019.4 hPa 0 mm - 62 W/m² -
1787839396 22.22° C 78% 1019.3 hPa 0 mm - 65 W/m² -
1787839095 21.67° C 80% 1019.4 hPa 0 mm - 88 W/m² -

* Rain latest hour (hover to see other rain measurements)
** Current wind speed in m/s (hover to see current wind gust speed)